This is the latest recevied weather packets stored in our database for station/object EA3ANS-1. If no packets are shown the sender has not sent any weather packets the latest 10 day(s).
| Time | Temp. | Humidity | Pressure | Rain* | Wind** | Luminosity | Snow |
|---|---|---|---|---|---|---|---|
| 1777465233 | 21.67° C | - | 1011.9 hPa | 0 mm | 3.58 m/s, 193° | - | - |
| 1777464634 | 21.67° C | - | 1012 hPa | 0 mm | 4.02 m/s, 124° | - | - |
| 1777464033 | 22.22° C | - | 1012 hPa | 0 mm | 3.13 m/s, 165° | - | - |
| 1777463433 | 22.22° C | - | 1012.1 hPa | 0 mm | 2.68 m/s, 121° | - | - |
| 1777462836 | 22.22° C | - | 1012.3 hPa | 0 mm | 1.79 m/s, 191° | - | - |
| 1777462234 | 21.67° C | - | 1012.3 hPa | 0 mm | 4.47 m/s, 129° | - | - |
| 1777461636 | 21.67° C | - | 1012.4 hPa | 0 mm | 5.36 m/s, 184° | - | - |
| 1777461033 | 21.67° C | - | 1012.4 hPa | 0 mm | 2.68 m/s, 115° | - | - |
| 1777460433 | 21.11° C | - | 1012.3 hPa | 0 mm | 2.68 m/s, 173° | - | - |
| 1777459836 | 20.56° C | - | 1012 hPa | 0 mm | 3.58 m/s, 174° | - | - |
| 1777459238 | 20.56° C | - | 1012.5 hPa | 0 mm | 2.68 m/s, 184° | - | - |
| 1777458641 | 20.56° C | - | 1012.4 hPa | 0 mm | 3.58 m/s, 158° | - | - |
| 1777458043 | 20° C | - | 1012.4 hPa | 0 mm | 3.58 m/s, 177° | - | - |
| 1777457446 | 20.56° C | - | 1012.3 hPa | 0 mm | 2.24 m/s, 160° | - | - |
| 1777456838 | 20.56° C | - | 1012.1 hPa | 0 mm | 4.02 m/s, 117° | - | - |
| 1777456235 | 20.56° C | - | 1012.2 hPa | 0 mm | 1.34 m/s, 103° | - | - |
| 1777455638 | 20.56° C | - | 1012.3 hPa | 0 mm | 4.02 m/s, 132° | - | - |
| 1777455030 | 20° C | - | 1012.1 hPa | 0 mm | 1.79 m/s, 131° | - | - |
| 1777454433 | 20° C | - | 1012 hPa | 0 mm | 3.58 m/s, 162° | - | - |
| 1777453834 | 20° C | - | 1011.8 hPa | 0 mm | 2.68 m/s, 153° | - | - |
| 1777453233 | 21.11° C | - | 1011.7 hPa | 0 mm | 1.34 m/s, 158° | - | - |
| 1777452625 | 20.56° C | - | 1011.8 hPa | 0 mm | 1.79 m/s, 135° | - | - |
| 1777452028 | 19.44° C | - | 1011.8 hPa | 0 mm | 0.45 m/s, 257° | - | - |
| 1777451430 | 19.44° C | - | 1011.8 hPa | 0 mm | 1.79 m/s, 166° | - | - |
| 1777450833 | 19.44° C | - | 1011.7 hPa | 0 mm | 0.89 m/s, 62° | - | - |
* Rain latest hour (hover to see other rain measurements)
** Current wind speed in m/s (hover to see current wind gust speed)